Location: Deep Valley
(39.7548°N, 80.4695°W)
Time: 14:24:04
(UTC+00:00)

ISS - Pass Details

Date: 03 December 2020
Orbit: 418 x 419 km, 51.6° (Epoch: 18 January)

Event Time Altitude Azimuth Distance (km) Brightness Sun altitude
Rises 22:32:52 0° 312° (NW) 2,369 0.4 -7.0°
Reaches altitude 10° 22:35:55 10° 342° (NNW) 1,502 -1.0 -7.5°
Maximum altitude 22:37:33 13° 11° (NNE) 1,337 -1.5 -7.8°
Drops below altitude 10° 22:39:11 10° 40° (NE) 1,500 -1.5 -8.1°
Enters shadow 22:39:29 - 45° (NE) 1,560 -1.4 -8.1°
